Location: Greenwich
(51.4790°N, 0.0090°E)
Time: 22:29:46
(UTC+01:00)

A-11 Canister half - Visible Passes

Search period start: 12 April 2024 00:00
Search period end: 22 April 2024 00:00
Orbit: 1513 x 1687 km, 47.2° (Epoch: 11 April)

Date Brightness Start Highest point End Pass type
(mag) Time Alt. Az. Time Alt. Az. Time Alt. Az.
12 Apr 10.9 21:34:45 10° W 21:40:56 19° SW 21:47:12 10° SSW visible
13 Apr 10.8 21:11:35 10° W 21:18:04 20° SW 21:24:39 10° S visible
14 Apr 10.8 20:48:26 10° W 20:55:11 21° SW 21:02:04 10° S visible
15 Apr 10.9 20:25:18 10° W 20:32:19 23° SW 20:39:27 10° S visible
